Tracking 23611 objects as of 18-Sep-2021
HD Live streaming from Space Station
objects crossing your sky now
Track INSPIRATION-4

STARLINK-1205

Track STARLINK-1205 now!
10-day predictions
STARLINK-1205 is classified as:


NORAD ID: 45184
Int'l Code: 2020-012G
Perigee: 553.0 km
Apogee: 555.7 km
Inclination: 53.1 °
Period: 95.6 minutes
Semi major axis: 6925 km
RCS: Unknown
Launch date: February 17, 2020
Source: United States (US)
Launch site: AIR FORCE EASTERN TEST RANGE (AFETR)
aabbcc
Your satellite tracking list
Your tracking list is empty




NASA's NSSDC Master Catalog

Two Line Element Set (TLE):
1 45184U 20012G   21261.10403013 -.00001024  00000-0 -49872-4 0  9994
2 45184  53.0535 160.0745 0001967  70.0163 290.1038 15.06389586 88222
Source of the keplerian elements: AFSPC